Regional Weather Roundup
Issued by NWS Huntsville, AL

Home | Current Version | Previous Version | Text Only | Print | Product List | Glossary On
Versions: 1 2 3 4 5 6 7 8 9 10 11 12 13 14 15 16 17 18 19 20 21 22 23 24 25 26 27 28 29 30 31 32 33 34 35 36 37 38 39 40 41 42 43 44 45 46 47 48 49 50
000
ASUS44 KHUN 210310
RWRHUN

WEATHER ROUNDUP FOR THE TENNESSEE VALLEY
NATIONAL WEATHER SERVICE HUNTSVILLE AL
1000 PM CDT MON OCT 20 2014

ALZ001>004-210400-
NORTHWEST ALABAMA

CITY           SKY/WX    TMP DP  RH WIND       PRES   REMARKS
COURTLAND HCN    N/A     54 N/A N/A CALM        N/A
RUSSELLVILLE     N/A     52 N/A N/A MISG        N/A
SHOALS AIRPORT CLEAR     53  49  86 CALM      30.05R
SHOALS TVA RES   N/A     54 N/A N/A MISG        N/A
$$

ALZ005>007-016-210400-
NORTH CENTRAL ALABAMA

CITY           SKY/WX    TMP DP  RH WIND       PRES   REMARKS
CULLMAN AG STN   N/A     54 N/A N/A CALM        N/A
DECATUR AP     CLEAR     52  49  89 CALM      30.05R
HUNTSVILLE AP  CLEAR     55  51  86 CALM      30.04S
MERIDIANVILLE  CLEAR     50  45  81 CALM      30.05R
VINEMONT AP    FAIR      51  50  96 CALM      30.07R
$$

ALZ008>010-210400-
NORTHEAST ALABAMA

CITY           SKY/WX    TMP DP  RH WIND       PRES   REMARKS
ALBERTVILLE    CLEAR     54  54 100 CALM      30.03S
FORT PAYNE     CLEAR     50  46  87 CALM      30.04S
SCOTTSBORO AP    N/A     52  50  93 CALM      30.05S
SCOTTSBORO HCN   N/A     50 N/A N/A MISG        N/A
VALLEY HEAD      N/A     50 N/A N/A MISG        N/A
$$

TNZ076-096-097-210400-
SOUTHEASTERN MIDDLE TENNESSEE

CITY           SKY/WX    TMP DP  RH WIND       PRES   REMARKS
TULLAHOMA      CLEAR     46  45  93 CALM      30.05R
WINCHESTER     CLEAR     50  48  93 CALM      30.05R
$$

...SURROUNDING SITES...

CITY           SKY/WX    TMP DP  RH WIND       PRES   REMARKS
ATLANTA        PTCLDY    62  51  67 NW5       30.02R
ANNISTON       CLEAR     54  51  90 CALM      30.04R
BIRMINGHAM     CLEAR     56  52  86 CALM      30.06R
CHATTANOOGA    PTCLDY    56  52  86 CALM      30.04R
CORINTH        FAIR      54  52  94 CALM      30.04R
DALTON         MOCLDY    52  52 100 CALM      30.04R
GADSDEN        CLEAR     54  48  82 CALM      30.04R
GOLDEN TRNGL   CLEAR     55  48  76 NW3       30.04S
HALEYVILLE     FAIR      51  50  97 CALM      30.08R
JACKSON TN     CLEAR     56  51  84 S5        30.03R
MEMPHIS        CLEAR     58  52  80 CALM      30.04R
NASHVILLE      CLEAR     53  49  86 S5        30.02R
OXFORD MS      FAIR      52  50  93 CALM      30.07R
ROME           CLEAR     54  51  90 CALM      30.02R
SAVANNAH       CLEAR     50  50 100 CALM      30.05R
TUPELO         CLEAR     56  53  90 CALM      30.05R
TUSCALOOSA     CLEAR     56  53  90 CALM      30.04S
$$

...GULF COAST WEATHER...

CITY           SKY/WX    TMP DP  RH WIND       PRES   REMARKS
GULFPORT       CLEAR     59  54  83 CALM      30.02R
PASCAGOULA     CLEAR     51  50  96 CALM      30.02R
MOBILE         MOCLDY    55  54  96 CALM      30.03R
GULF SHORES    CLEAR     56  55  98 CALM      30.01S
PENSACOLA      PTCLDY    62  58  86 N6        30.01R
DESTIN         CLEAR     68  59  73 N3        30.00R
PANAMA CITY    PTCLDY    63  62  99 CALM      30.00R
APPALACHICOLA  MOCLDY    71  65  81 CALM      29.99R
$$



USA.gov is the U.S. government's official web portal to all federal, state and local government web resources and services.